When you browse on this site, cookies collect data to enhance your experience and personalize the content and advertising you see.
Visit our Privacy Policy to learn more. By continuing to use the site, you agree to this use of cookies and data.
  • In Slovakia
  • List of Countries
  • For 7 days
  • Water Temperature
  • Weather Map
  • Weather Widgets
  • user-avatar
    Login

    Hourly Weather Encamp

    Today, 17 February, Monday

    Time Temperature Precipitation Wind Pressure Humidity
    00:00 +5°C° 0 mm 2 mps 626 mmHg 47%
    01:00 +5°C° 0 mm 2 mps 626 mmHg 48%
    02:00 +5°C° 0 mm 2 mps 625 mmHg 48%
    03:00 +4°C° 0 mm 2 mps 625 mmHg 48%
    04:00 +5°C° 0 mm 1 mps 625 mmHg 49%
    05:00 +5°C° 0 mm 1 mps 625 mmHg 49%
    06:00 +5°C° 0 mm 1 mps 625 mmHg 50%
    07:00 +6°C° 0 mm 1 mps 626 mmHg 50%
    08:00 +8°C° 0 mm 1 mps 627 mmHg 50%
    09:00 +9°C° 0 mm 1 mps 627 mmHg 49%
    10:00 +11°C° 0 mm 1 mps 628 mmHg 49%
    11:00 +12°C° 0 mm 2 mps 628 mmHg 48%
    12:00 +13°C° 0 mm 2 mps 629 mmHg 47%
    13:00 +12°C° 0 mm 2 mps 629 mmHg 55%
    14:00 +9°C° 0 mm 2 mps 628 mmHg 63%
    15:00 +8°C° 0 mm 2 mps 628 mmHg 71%
    16:00 +7°C° 0.1 mm 2 mps 628 mmHg 78%
    17:00 +5°C° 0.1 mm 2 mps 628 mmHg 84%
    18:00 +4°C° 0.1 mm 2 mps 628 mmHg 90%
    19:00 +3°C° 0 mm 2 mps 628 mmHg 90%
    20:00 +3°C° 0 mm 2 mps 628 mmHg 90%
    21:00 +2°C° 0 mm 2 mps 629 mmHg 90%
    22:00 +1°C° 0 mm 2 mps 629 mmHg 89%
    23:00 +1°C° 0 mm 2 mps 629 mmHg 88%

    Tomorrow, 18 February, Tuesday

    Time Temperature Precipitation Wind Pressure Humidity
    00:00 +1°C° 0 mm 2 mps 629 mmHg 86%
    01:00 -1°C° 0 mm 2 mps 629 mmHg 86%
    02:00 -1°C° 0 mm 2 mps 629 mmHg 86%
    03:00 -1°C° 0 mm 2 mps 629 mmHg 85%
    04:00 -2°C° 0 mm 2 mps 629 mmHg 86%
    05:00 -2°C° 0 mm 2 mps 628 mmHg 87%
    06:00 -2°C° 0 mm 2 mps 628 mmHg 88%
    07:00 -2°C° 0 mm 2 mps 629 mmHg 84%
    08:00 -1°C° 0 mm 2 mps 629 mmHg 79%
    09:00 +2°C° 0 mm 1 mps 630 mmHg 75%
    10:00 +3°C° 0 mm 1 mps 630 mmHg 70%
    11:00 +4°C° 0 mm 1 mps 630 mmHg 65%
    12:00 +5°C° 0 mm 1 mps 631 mmHg 61%
    13:00 +5°C° 0 mm 1 mps 630 mmHg 62%
    14:00 +4°C° 0 mm 2 mps 630 mmHg 63%
    15:00 +4°C° 0 mm 2 mps 629 mmHg 65%
    16:00 +4°C° 0 mm 1 mps 629 mmHg 73%
    17:00 +2°C° 0 mm 1 mps 629 mmHg 80%
    18:00 +1°C° 0 mm 1 mps 628 mmHg 88%
    19:00 0°C° 0 mm 1 mps 628 mmHg 88%
    20:00 0°C° 0 mm 1 mps 629 mmHg 88%
    21:00 -2°C° 0 mm 2 mps 629 mmHg 88%
    22:00 -2°C° 0 mm 2 mps 629 mmHg 87%
    23:00 -3°C° 0 mm 2 mps 629 mmHg 87%

    Day after tomorrow, 19 February, Wednesday

    Time Temperature Precipitation Wind Pressure Humidity
    00:00 -3°C° 0 mm 2 mps 628 mmHg 86%
    01:00 -3°C° 0 mm 2 mps 628 mmHg 84%
    02:00 -4°C° 0 mm 2 mps 628 mmHg 82%
    03:00 -4°C° 0 mm 2 mps 627 mmHg 80%
    04:00 -4°C° 0 mm 2 mps 627 mmHg 76%
    05:00 -4°C° 0 mm 2 mps 627 mmHg 73%
    06:00 -4°C° 0 mm 2 mps 628 mmHg 69%
    07:00 -3°C° 0 mm 2 mps 628 mmHg 63%
    08:00 -2°C° 0 mm 2 mps 629 mmHg 57%
    09:00 +1°C° 0 mm 2 mps 630 mmHg 52%
    10:00 +2°C° 0 mm 2 mps 630 mmHg 47%
    11:00 +5°C° 0 mm 1 mps 631 mmHg 43%
    12:00 +7°C° 0 mm 1 mps 632 mmHg 38%
    13:00 +7°C° 0 mm 1 mps 631 mmHg 42%
    14:00 +7°C° 0 mm 1 mps 630 mmHg 45%
    15:00 +7°C° 0 mm 1 mps 630 mmHg 49%
    16:00 +5°C° 0 mm 1 mps 629 mmHg 60%
    17:00 +2°C° 0 mm 1 mps 628 mmHg 72%
    18:00 -1°C° 0 mm 0 mps 627 mmHg 84%
    19:00 -1°C° 0 mm 0 mps 627 mmHg 79%
    20:00 +1°C° 0 mm 1 mps 627 mmHg 75%
    21:00 +1°C° 0 mm 1 mps 627 mmHg 71%
    22:00 +1°C° 0 mm 1 mps 627 mmHg 66%
    23:00 +1°C° 0 mm 1 mps 627 mmHg 61%

    20 February, Thursday

    Time Temperature Precipitation Wind Pressure Humidity
    00:00 +1°C° 0 mm 1 mps 626 mmHg 56%
    01:00 +1°C° 0 mm 1 mps 626 mmHg 53%
    02:00 +1°C° 0 mm 1 mps 625 mmHg 50%
    03:00 +1°C° 0 mm 1 mps 625 mmHg 46%
    04:00 +1°C° 0 mm 1 mps 625 mmHg 44%
    05:00 +1°C° 0 mm 1 mps 624 mmHg 42%
    06:00 +2°C° 0 mm 1 mps 624 mmHg 40%
    07:00 +4°C° 0 mm 1 mps 625 mmHg 38%
    08:00 +5°C° 0 mm 0 mps 625 mmHg 36%
    09:00 +7°C° 0 mm 0 mps 626 mmHg 33%
    10:00 +9°C° 0 mm 1 mps 626 mmHg 33%
    11:00 +10°C° 0 mm 1 mps 627 mmHg 32%
    12:00 +11°C° 0 mm 1 mps 627 mmHg 31%
    13:00 +11°C° 0 mm 1 mps 626 mmHg 34%
    14:00 +10°C° 0 mm 1 mps 626 mmHg 38%
    15:00 +10°C° 0 mm 1 mps 625 mmHg 41%
    16:00 +7°C° 0 mm 1 mps 625 mmHg 51%
    17:00 +5°C° 0 mm 1 mps 624 mmHg 62%
    18:00 +2°C° 0 mm 0 mps 623 mmHg 72%
    19:00 +2°C° 0 mm 1 mps 623 mmHg 73%
    20:00 +2°C° 0 mm 1 mps 624 mmHg 74%
    21:00 +1°C° 0 mm 2 mps 625 mmHg 74%
    22:00 -1°C° 0 mm 2 mps 625 mmHg 77%
    23:00 -1°C° 0 mm 2 mps 625 mmHg 80%

    21 February, Friday

    Time Temperature Precipitation Wind Pressure Humidity
    00:00 -2°C° 0 mm 2 mps 625 mmHg 82%
    01:00 -2°C° 0 mm 2 mps 625 mmHg 84%
    02:00 -2°C° 0 mm 2 mps 626 mmHg 85%
    03:00 -2°C° 0 mm 2 mps 626 mmHg 87%
    04:00 -2°C° 0.2 mm 2 mps 626 mmHg 87%
    05:00 -2°C° 0.2 mm 3 mps 626 mmHg 88%
    06:00 -2°C° 0.2 mm 3 mps 627 mmHg 88%
    13:00 +8°C° 0 mm 1 mps 631 mmHg 47%
    14:00 +6°C° 0 mm 2 mps 631 mmHg 38%
    15:00 +6°C° 0 mm 2 mps 631 mmHg 39%
    16:00 +3°C° 0 mm 2 mps 630 mmHg 51%
    17:00 +1°C° 0 mm 2 mps 629 mmHg 63%
    18:00 0°C° 0 mm 1 mps 628 mmHg 75%
    19:00 0°C° 0 mm 1 mps 629 mmHg 64%
    20:00 0°C° 0 mm 1 mps 629 mmHg 53%
    21:00 0°C° 0 mm 1 mps 630 mmHg 42%
    22:00 0°C° 0 mm 1 mps 630 mmHg 37%
    23:00 0°C° 0 mm 1 mps 630 mmHg 31%

    22 February, Saturday

    Time Temperature Precipitation Wind Pressure Humidity
    00:00 +1°C° 0 mm 1 mps 630 mmHg 26%
    01:00 +1°C° 0 mm 1 mps 630 mmHg 25%
    02:00 +1°C° 0 mm 1 mps 630 mmHg 24%
    03:00 +1°C° 0 mm 1 mps 630 mmHg 22%
    04:00 +1°C° 0 mm 1 mps 630 mmHg 22%
    05:00 +1°C° 0 mm 1 mps 631 mmHg 22%
    06:00 +1°C° 0 mm 1 mps 631 mmHg 22%
    07:00 +3°C° 0 mm 1 mps 632 mmHg 23%
    08:00 +5°C° 0 mm 1 mps 633 mmHg 23%
    09:00 +7°C° 0 mm 1 mps 634 mmHg 24%
    10:00 +8°C° 0 mm 1 mps 635 mmHg 25%
    11:00 +10°C° 0 mm 1 mps 635 mmHg 25%
    12:00 +11°C° 0 mm 1 mps 636 mmHg 26%
    13:00 +11°C° 0 mm 1 mps 635 mmHg 28%
    14:00 +11°C° 0 mm 1 mps 635 mmHg 31%
    15:00 +11°C° 0 mm 1 mps 634 mmHg 33%
    16:00 +8°C° 0 mm 1 mps 633 mmHg 42%
    17:00 +6°C° 0 mm 1 mps 633 mmHg 50%
    18:00 +3°C° 0 mm 1 mps 632 mmHg 58%
    19:00 +2°C° 0 mm 2 mps 632 mmHg 53%
    20:00 +2°C° 0 mm 2 mps 632 mmHg 49%
    21:00 +2°C° 0 mm 2 mps 632 mmHg 44%
    22:00 +2°C° 0 mm 2 mps 632 mmHg 44%
    23:00 +2°C° 0 mm 2 mps 632 mmHg 43%
    Show more